This is the latest recevied weather packets stored in our database for station/object N8WJW. If no packets are shown the sender has not sent any weather packets the latest 10 day(s).
| Time | Temp. | Humidity | Pressure | Rain* | Wind** | Luminosity | Snow |
|---|---|---|---|---|---|---|---|
| 1777732227 | 2.78° C | 91% | 1018.1 hPa | 0 mm | - | 96 W/m² | - |
| 1777731923 | 2.78° C | 92% | 1018.1 hPa | 0 mm | - | 106 W/m² | - |
| 1777731620 | 2.78° C | 92% | 1018 hPa | 0 mm | - | 84 W/m² | - |
| 1777731318 | 2.78° C | 92% | 1017.9 hPa | 0 mm | - | 64 W/m² | - |
| 1777731015 | 2.78° C | 92% | 1017.8 hPa | 0 mm | - | 95 W/m² | - |
| 1777730714 | 2.78° C | 93% | 1017.9 hPa | 0 mm | - | 102 W/m² | - |
| 1777730410 | 2.22° C | 94% | 1018 hPa | 0 mm | - | 88 W/m² | - |
| 1777730105 | 2.22° C | 95% | 1017.7 hPa | 0 mm | - | 86 W/m² | - |
| 1777729802 | 2.78° C | 95% | 1017.7 hPa | 0 mm | - | 94 W/m² | - |
| 1777729499 | 2.78° C | 96% | 1017.6 hPa | 0 mm | - | 97 W/m² | - |
| 1777729196 | 2.78° C | 97% | 1017.6 hPa | 0 mm | - | 92 W/m² | - |
| 1777728892 | 2.78° C | 97% | 1017.7 hPa | 0 mm | - | 103 W/m² | - |
| 1777728589 | 2.78° C | 98% | 1017.7 hPa | 0 mm | - | 90 W/m² | - |
| 1777728286 | 2.22° C | 98% | 1017.7 hPa | 0 mm | - | 78 W/m² | - |
| 1777727984 | 2.22° C | 98% | 1017.8 hPa | 0 mm | - | 71 W/m² | - |
| 1777727680 | 2.22° C | 98% | 1017.7 hPa | 0 mm | - | 66 W/m² | - |
| 1777727377 | 2.22° C | 98% | 1017.8 hPa | 0 mm | - | 67 W/m² | - |
| 1777727074 | 2.22° C | 98% | 1017.7 hPa | 0 mm | - | 62 W/m² | - |
| 1777726772 | 2.22° C | 98% | 1017.6 hPa | 0 mm | - | 62 W/m² | - |
| 1777726469 | 2.22° C | 98% | 1018 hPa | 0 mm | - | 42 W/m² | - |
| 1777726166 | 2.22° C | 98% | 1017.8 hPa | 0 mm | - | 36 W/m² | - |
| 1777725862 | 2.22° C | 98% | 1017.7 hPa | 0 mm | - | 30 W/m² | - |
| 1777725561 | 2.22° C | 99% | 1017.8 hPa | 0 mm | - | 40 W/m² | - |
| 1777725257 | 2.22° C | 99% | 1017.8 hPa | 0 mm | - | 38 W/m² | - |
| 1777724954 | 2.22° C | 99% | 1017.7 hPa | 0 mm | - | 50 W/m² | - |
* Rain latest hour (hover to see other rain measurements)
** Current wind speed in m/s (hover to see current wind gust speed)